Weather History for Praha / Ruzyne, Czech Republic

Change the Weather History Date:

Wednesday, October 9, 2013

  Actual Average Record
Temperature  
Mean Temperature 48 °F -  
Max Temperature 55 °F 52 °F - ()
Min Temperature 40 °F 37 °F - ()
Degree Days  
Heating Degree Days 18    
Moisture  
Dew Point 44 °F    
Average Humidity 87    
Maximum Humidity 100    
Minimum Humidity 72    
Precipitation  
Precipitation 0.00 in 0.04 in - ()
Sea Level Pressure  
Sea Level Pressure 30.10 in    
Wind  
Wind Speed 6 mph ()    
Max Wind Speed 10 mph    
Max Gust Speed -    
Visibility 3.7 miles    
Events      
T = Trace of Precipitation, MM = Missing Value Source: Averaged Metar Reports

Daily Weather History Graph

Daily Weather History Graph

Search for Another Location

Airport:

Trip Planner

Search our weather history database for the weather conditions in past years. The results will help you decide how hot, cold, wet, or windy it might be!

Date:

Astronomy

Oct. 09, 2013 Rise Set
Actual Time 7:15 AM CEST 6:24 PM CEST
Civil Twilight 6:43 AM CEST 6:56 PM CEST
Nautical Twilight 6:05 AM CEST 7:33 PM CEST
Astronomical Twilight 5:27 AM CEST 8:11 PM CEST
Moon 12:17 PM CEST (10/9) 9:17 PM CEST (10/9)
Length of Visible Light 12h 13m
Length of Day
11h 08m
Waxing Crescent, 22% of the Moon is Illuminated
Oct 9
Waxing Crescent
Oct 12
First Quarter
Oct 19
Full
Oct 27
Last Quarter
Nov 3
New

Hourly Weather History & Observations

Time (CEST) Temp. Windchill Dew Point Humidity Pressure Visibility Wind Dir Wind Speed Gust Speed Precip Events Conditions
12:00 AM 46.4 °F 43.5 °F 41.0 °F 81% 30.21 in 4.3 mi SW 5.8 mph - N/A   Unknown
12:30 AM 44.6 °F 42.2 °F 42.8 °F 93% 30.21 in 3.7 mi SSW 4.6 mph - N/A   Unknown
1:00 AM 44.6 °F 41.4 °F 41.0 °F 87% 30.21 in 3.7 mi SSW 5.8 mph - N/A   Unknown
1:30 AM 44.6 °F 41.4 °F 41.0 °F 87% 30.21 in 3.7 mi SSW 5.8 mph - N/A   Unknown
2:00 AM 44 °F - 42 °F 92% 30.24 in 3 mi WSW 6.7 mph - -   Mist
2:00 AM 44.6 °F 41.4 °F 42.8 °F 93% 30.21 in 3.1 mi SW 5.8 mph - N/A   Mist
2:30 AM 44.6 °F 41.4 °F 42.8 °F 93% 30.21 in 2.8 mi SW 5.8 mph - N/A   Mist
3:00 AM 42.8 °F 39.3 °F 41.0 °F 93% 30.18 in 2.8 mi WSW 5.8 mph - N/A   Mist
3:30 AM 42.8 °F 39.3 °F 41.0 °F 93% 30.18 in 2.8 mi SW 5.8 mph - N/A   Mist
4:00 AM 42.8 °F 39.3 °F 41.0 °F 93% 30.18 in 2.5 mi SW 5.8 mph - N/A   Mist
4:30 AM 41.0 °F 36.4 °F 41.0 °F 100% 30.18 in 2.5 mi SW 6.9 mph - N/A   Mist
5:00 AM 41.0 °F 37.1 °F 41.0 °F 100% 30.18 in 2.5 mi SSW 5.8 mph - N/A   Mist
5:30 AM 41.0 °F 36.4 °F 39.2 °F 93% 30.18 in 2.5 mi SW 6.9 mph - N/A   Mist
6:00 AM 41.0 °F 36.4 °F 39.2 °F 93% 30.15 in 2.5 mi SW 6.9 mph - N/A   Mist
6:30 AM 41.0 °F 36.4 °F 39.2 °F 93% 30.15 in 2.5 mi SW 6.9 mph - N/A   Mist
7:00 AM 41.0 °F 36.4 °F 39.2 °F 93% 30.15 in 1.9 mi SW 6.9 mph - N/A   Mist
7:15 AM 41.0 °F 36.4 °F 39.2 °F 93% 30.15 in 1.5 mi WSW 6.9 mph - N/A   Partly Cloudy
7:30 AM 41.0 °F 36.4 °F 39.2 °F 93% 30.15 in 1.4 mi SSW 6.9 mph - N/A   Mostly Cloudy
8:00 AM 40 °F - 39 °F 97% 30.20 in 1 mi SW 6.7 mph - -   Mist
8:00 AM 41.0 °F 36.4 °F 39.2 °F 93% 30.15 in 1.4 mi SW 6.9 mph - N/A   Mostly Cloudy
8:31 AM 42.8 °F 38.0 °F 42.8 °F 100% 30.15 in 2.2 mi SSW 8.1 mph - N/A   Mostly Cloudy
9:00 AM 44.6 °F 40.2 °F 42.8 °F 93% 30.15 in 2.5 mi SSW 8.1 mph - N/A   Mostly Cloudy
9:30 AM 46.4 °F 43.5 °F 44.6 °F 93% 30.15 in 2.5 mi WSW 5.8 mph - N/A   Mostly Cloudy
10:00 AM 46.4 °F 42.4 °F 44.6 °F 93% 30.15 in 2.5 mi SW 8.1 mph - N/A   Overcast
10:30 AM 48.2 °F - 44.6 °F 87% 30.15 in 2.8 mi SW 8.1 mph - N/A   Overcast
11:00 AM 48.2 °F - 46.4 °F 93% 30.15 in 3.1 mi SSW 6.9 mph - N/A   Overcast
11:30 AM 50.0 °F - 46.4 °F 87% 30.12 in 3.1 mi WSW 5.8 mph - N/A   Overcast
12:00 PM 51.8 °F - 48.2 °F 88% 30.12 in 3.1 mi SW 8.1 mph - N/A   Overcast
12:30 PM 53.6 °F - 48.2 °F 82% 30.12 in 3.7 mi SW 8.1 mph - N/A   Overcast
1:00 PM 53.6 °F - 46.4 °F 77% 30.12 in 4.3 mi SW 6.9 mph - N/A   Overcast
1:30 PM 53.6 °F - 48.2 °F 82% 30.09 in 5.0 mi SW 6.9 mph - N/A   Overcast
2:00 PM 54 °F - 47 °F 72% 30.09 in 5 mi SSW 8.9 mph - -   Mist
2:00 PM 53.6 °F - 48.2 °F 82% 30.09 in 5.0 mi SSW 6.9 mph - N/A   Overcast
2:30 PM 55.4 °F - 46.4 °F 72% 30.06 in 6.2 mi SSW 10.4 mph - N/A   Overcast
3:00 PM 55.4 °F - 46.4 °F 72% 30.06 in 6.2 mi SW 9.2 mph - N/A   Overcast
3:30 PM 53.6 °F - 46.4 °F 77% 30.06 in 6.2 mi SSW 9.2 mph - N/A   Overcast
4:00 PM 53.6 °F - 46.4 °F 77% 30.04 in 5.6 mi SSW 9.2 mph - N/A   Overcast
4:30 PM 53.6 °F - 46.4 °F 77% 30.04 in 5.0 mi SSW 5.8 mph - N/A   Overcast
5:00 PM 53.6 °F - 46.4 °F 77% 30.01 in 4.3 mi SSW 6.9 mph - N/A   Overcast
5:30 PM 53.6 °F - 46.4 °F 77% 30.01 in 3.7 mi SSW 8.1 mph - N/A   Overcast
6:00 PM 53.6 °F - 48.2 °F 82% 30.01 in 3.1 mi South 6.9 mph - N/A   Overcast
6:30 PM 51.8 °F - 48.2 °F 88% 29.98 in 3.7 mi South 8.1 mph - N/A   Overcast
7:00 PM 51.8 °F - 48.2 °F 88% 29.98 in 4.3 mi South 8.1 mph - N/A   Overcast
7:30 PM 51.8 °F - 48.2 °F 88% 29.98 in 5.0 mi South 9.2 mph - N/A   Overcast
8:00 PM 52 °F - 47 °F 79% 29.99 in 5 mi SSW 8.9 mph - -   Mist
8:00 PM 51.8 °F - 48.2 °F 88% 29.98 in 5.0 mi SSW 8.1 mph - N/A   Overcast
8:30 PM 51.8 °F - 46.4 °F 82% 29.95 in 5.0 mi SSW 8.1 mph - N/A   Overcast
9:00 PM 51.8 °F - 48.2 °F 88% 29.95 in 5.0 mi South 8.1 mph - N/A   Overcast
9:30 PM 51.8 °F - 46.4 °F 82% 29.95 in 5.0 mi SSW 8.1 mph - N/A   Overcast
10:00 PM 51.8 °F - 46.4 °F 82% 29.95 in 5.0 mi SSW 8.1 mph - N/A   Mostly Cloudy
10:30 PM 51.8 °F - 46.4 °F 82% 29.95 in 5.0 mi SSW 9.2 mph - N/A   Mostly Cloudy
11:00 PM 51.8 °F - 46.4 °F 82% 29.92 in 5.0 mi South 10.4 mph - N/A   Mostly Cloudy
11:30 PM 50.0 °F - 46.4 °F 87% 29.92 in 5.0 mi South 9.2 mph - N/A   Unknown